Eau Claire, WI

5:57 PM CST on November 20, 2019 (GMT -0600)
Chippewa Valley Regional

Weather History for KEAU - October, 2019

Change the Weather History Date:

Monday, October 21, 2019

  Actual Average Record
Temperature  
Mean Temperature 54 °F 46 °F  
Max Temperature 61 °F 56 °F 86 °F (1947)
Min Temperature 46 °F 35 °F 15 °F (1960)
Degree Days  
Heating Degree Days 12 20  
Month to date heating degree days 301 334  
Since 1 July heating degree days 409 567  
Cooling Degree Days 0 0  
Month to date cooling degree days 0 4  
Year to date cooling degree days 463 579  
Growing Degree Days 4 (Base 50)    
Moisture  
Dew Point 45 °F    
Average Humidity 78    
Maximum Humidity 90    
Minimum Humidity 49    
Precipitation  
Precipitation 1.62 in 0.07 in 1.33 in (1951)
Month to date precipitation 5.03 1.74  
Year to date precipitation 39.32 27.54  
Snow  
Snow 0.00 in 0.00 in 1.70 in (2002)
Month to date snowfall T 0.1  
Since 1 July snowfall T 0.1  
Since 1 September snowfall T 0.1  
Snow Depth 0.00 in    
Sea Level Pressure  
Sea Level Pressure 29.31 in    
Wind  
Wind Speed 12 mph ()    
Max Wind Speed 26 mph    
Max Gust Speed 41 mph    
Visibility 6.1 miles    
Events Rain , Thunderstorm    
T = Trace of Precipitation, MM = Missing Value Source: Averaged Metar Reports

Daily Weather History Graph

Daily Weather History Graph

Search for Another Location

Airport or City:

Astronomy

Oct. 21, 2019 Rise Set
Actual Time 7:29 AM CDT 6:11 PM CDT
Civil Twilight 6:59 AM CDT 6:41 PM CDT
Nautical Twilight 6:25 AM CDT 7:15 PM CDT
Astronomical Twilight 5:51 AM CDT 7:49 PM CDT
Moon No Moon Rise 2:56 PM CDT (10/21)
Length of Visible Light 11h 41m
Length of Day
10h 42m
Waning Gibbous, 48% of the Moon is Illuminated
Oct 21
Waning Gibbous
Oct 27
New
Nov 4
First Quarter
Nov 12
Full
Nov 19
Last Quarter

Hourly Weather History & Observations

Time (CDT) Temp. Dew Point Humidity Pressure Visibility Wind Dir Wind Speed Gust Speed Precip Events Conditions
12:56 AM 53.1 °F 39.9 °F 61% 29.81 in 10.0 mi ESE 10.4 mph - N/A   Clear
1:56 AM 53.1 °F 37.0 °F 55% 29.75 in 10.0 mi East 10.4 mph - N/A   Clear
2:56 AM 54.0 °F 37.0 °F 53% 29.75 in 10.0 mi ESE 13.8 mph - N/A   Clear
3:56 AM 54.0 °F 36.0 °F 51% 29.70 in 10.0 mi ESE 15.0 mph 25.3 mph N/A   Clear
4:56 AM 54.0 °F 35.1 °F 49% 29.64 in 10.0 mi East 15.0 mph 25.3 mph N/A   Clear
5:56 AM 53.1 °F 36.0 °F 52% 29.60 in 10.0 mi East 18.4 mph 25.3 mph N/A   Partly Cloudy
6:56 AM 51.1 °F 41.0 °F 68% 29.53 in 6.0 mi East 21.9 mph 28.8 mph 0.01 in Rain Light Rain
7:56 AM 50.0 °F 44.1 °F 80% 29.48 in 6.0 mi East 15.0 mph 23.0 mph 0.07 in Rain Light Rain
8:30 AM 50.0 °F 45.0 °F 83% 29.45 in 3.0 mi ESE 11.5 mph 20.7 mph 0.14 in Rain Heavy Rain
8:49 AM 50.0 °F 45.0 °F 83% 29.43 in 3.0 mi East 11.5 mph - 0.22 in Rain Rain
8:56 AM 50.0 °F 46.0 °F 86% 29.44 in 2.0 mi East 12.7 mph - 0.28 in Rain Heavy Rain
9:03 AM 50.0 °F 46.0 °F 86% 29.43 in 1.8 mi East 11.5 mph - 0.06 in Rain Heavy Rain
9:11 AM 50.0 °F 46.0 °F 86% 29.43 in 2.5 mi East 10.4 mph - 0.10 in Rain Heavy Rain
9:56 AM 51.1 °F 46.9 °F 86% 29.38 in 2.0 mi East 13.8 mph - 0.33 in Rain Heavy Rain
10:04 AM 51.1 °F 46.9 °F 86% 29.37 in 1.5 mi East 13.8 mph - 0.04 in Rain Heavy Rain
10:24 AM 51.1 °F 48.0 °F 89% 29.34 in 2.0 mi ENE 11.5 mph - 0.10 in Rain Rain
10:29 AM 51.1 °F 48.0 °F 89% 29.34 in 1.8 mi ENE 11.5 mph - 0.13 in Rain Rain
10:43 AM 51.1 °F 48.0 °F 89% 29.32 in 1.8 mi ENE 9.2 mph - 0.21 in Rain Rain
10:51 AM 51.8 °F 48.2 °F 88% 29.30 in 2.5 mi ENE 10.4 mph - 0.22 in Rain Rain
10:56 AM 52.0 °F 48.0 °F 86% 29.30 in 3.0 mi East 12.7 mph - 0.23 in Rain Light Rain
10:59 AM 52.0 °F 48.0 °F 86% 29.29 in 2.0 mi ENE 10.4 mph - 0.02 in Rain Rain
11:07 AM 52.0 °F 48.9 °F 89% 29.28 in 1.5 mi ENE 10.4 mph - 0.05 in Rain Rain
11:11 AM 52.0 °F 48.9 °F 89% 29.27 in 2.0 mi East 15.0 mph 20.7 mph 0.05 in Rain Rain
11:25 AM 53.1 °F 48.9 °F 86% 29.25 in 4.0 mi East 17.3 mph 23.0 mph 0.08 in Rain Light Rain
11:47 AM 54.0 °F 48.9 °F 83% 29.22 in 2.5 mi East 12.7 mph 31.1 mph 0.13 in Rain Rain
11:56 AM 54.0 °F 50.0 °F 86% 29.21 in 2.0 mi East 18.4 mph 27.6 mph 0.19 in Rain Heavy Rain
12:56 PM 54.0 °F 50.0 °F 86% 29.21 in 1.5 mi South 9.2 mph 26.5 mph 0.32 in Rain Heavy Rain
1:04 PM 54.0 °F 50.0 °F 86% 29.20 in 1.8 mi SSE 9.2 mph - 0.02 in Rain Rain
1:07 PM 54.0 °F 50.0 °F 86% 29.19 in 3.0 mi SSE 6.9 mph 18.4 mph 0.02 in Rain Light Rain
1:15 PM 54.0 °F 51.1 °F 90% 29.18 in 3.0 mi SE 8.1 mph - 0.03 in Rain Light Rain
1:32 PM 55.0 °F 51.1 °F 86% 29.16 in 10.0 mi SE 10.4 mph - 0.04 in Rain Light Rain
1:56 PM 55.9 °F 51.1 °F 84% 29.15 in 10.0 mi SSE 5.8 mph - 0.04 in   Overcast
2:04 PM 57.0 °F 51.1 °F 81% 29.14 in 10.0 mi SE 5.8 mph - N/A   Mostly Cloudy
2:56 PM 60.1 °F 48.9 °F 67% 29.15 in 10.0 mi SSW 11.5 mph - N/A   Partly Cloudy
3:56 PM 60.1 °F 46.9 °F 62% 29.15 in 10.0 mi South 11.5 mph - N/A   Mostly Cloudy
4:56 PM 60.1 °F 46.0 °F 60% 29.16 in 10.0 mi South 13.8 mph - N/A   Overcast
5:29 PM 57.0 °F 46.9 °F 69% 29.19 in 2.5 mi South 25.3 mph 40.3 mph 0.03 in Rain Heavy Rain
5:34 PM 53.1 °F 46.9 °F 80% 29.19 in 1.8 mi SSW 19.6 mph 40.3 mph 0.04 in Rain , Thunderstorm Thunderstorms and Rain
5:41 PM 53.1 °F 46.9 °F 80% 29.19 in 3.0 mi South 18.4 mph 28.8 mph 0.06 in Rain , Thunderstorm Thunderstorms and Rain
5:49 PM 53.1 °F 46.9 °F 80% 29.19 in 10.0 mi SSW 13.8 mph 28.8 mph 0.06 in   Overcast
5:56 PM 53.1 °F 46.9 °F 80% 29.20 in 10.0 mi SSW 18.4 mph 27.6 mph 0.06 in   Overcast
6:56 PM 52.0 °F 46.0 °F 80% 29.22 in 10.0 mi South 17.3 mph 25.3 mph 0.05 in   Overcast
7:10 PM 52.0 °F 44.1 °F 74% 29.22 in 10.0 mi South 17.3 mph - N/A   Overcast
7:56 PM 51.1 °F 43.0 °F 74% 29.22 in 10.0 mi South 17.3 mph 28.8 mph N/A   Overcast
8:15 PM 51.1 °F 42.1 °F 71% 29.22 in 10.0 mi South 17.3 mph 26.5 mph N/A   Overcast
8:45 PM 48.9 °F 43.0 °F 80% 29.22 in 10.0 mi SSE 17.3 mph 25.3 mph 0.00 in Rain Light Rain
8:56 PM 48.9 °F 43.0 °F 80% 29.22 in 10.0 mi SSE 13.8 mph 23.0 mph 0.00 in   Overcast
9:56 PM 48.9 °F 41.0 °F 74% 29.21 in 10.0 mi South 16.1 mph 24.2 mph N/A   Mostly Cloudy
10:24 PM 48.9 °F 41.0 °F 74% 29.19 in 10.0 mi SSE 11.5 mph - N/A   Overcast
10:52 PM 48.2 °F 41.0 °F 76% 29.19 in 9.0 mi SSE 15.0 mph - N/A   Overcast
10:56 PM 48.9 °F 41.0 °F 74% 29.19 in 9.0 mi SSE 16.1 mph - N/A   Overcast
11:56 PM 46.9 °F 42.1 °F 83% 29.18 in 10.0 mi ESE 10.4 mph - N/A   Overcast